Search for airport 
image banner adimage banner adimage banner ad
image banner ad

43CL - Dick Dale Skyranch

Located in Twentynine Palms, United States

ICAO - 43CL, IATA -

Data provided by Airmate  

General information

Coordinates: N34°12'22" W115°59'52"
Elevation is 1793 feet MSL.
Magnetic variation is 14° East
View others Airports in California

Operational data

Special qualification required
Current time UTC:
Current local time:
Weather at : KNXP - Twentynine Palms Self ( 18 km )
METAR: KNXP 210856Z AUTO 30007KT 10SM CLR 29/M02 A2990 RMK AO2 SLP081 T02891017 50000 $
TAF: TAF KNXP 2109/2209 28012KT 9999 SKC 520009 520903 QNH2983INS FM211430 VRB05KT 9999 SKC 520009 520903 QNH2990INS BECMG 2119/2121 24015KT 9999 SKC 520009 520903 QNH2988INS TEMPO 2121/2203 24020G30KT FM220730 27010KT 9999 SKC 520009 520903 QNH2992INS T26/2113Z T41/2122Z
View NOTAMs / SUP AIP / TFR affecting this airport [VIEW]
Communications frequencies: [VIEW]

Runways:

RWY identifierQFULength (ft)Width (ft)SurfaceLDA (ft)
10280085EARTH
28280085EARTH
12286085EARTH
30286085EARTH

Airport contact information

Address: Twentynine Palms United States

Satellite view of 43CL